Tracking 19644 objects as of 24-Apr-2019
HD Live streaming from Space Station
objects crossing your sky now

CZ-4 DEB

Track CZ-4 DEB now!
10-day predictions


NORAD ID: 26218
Int'l Code: 1999-057DG
Perigee: 643.2 km
Apogee: 757.5 km
Inclination: 98.7 °
Period: 98.6 minutes
Semi major axis: 7071 km
RCS: 0.1017 m2 (medium)
Launch date: October 14, 1999
Source: People's Republic of China (PRC)
Launch site: Taiyaun Space Center, China (TSC)

Note: This is SATELLITE DEBRIS
aabbcc
Your satellite tracking list
Your tracking list is empty




NASA's NSSDC Master Catalog

Two Line Element Set (TLE):
1 26218U 99057DG  19114.13726622  .00000956  00000-0  20145-3 0  9999
2 26218  98.7189  81.5624 0080846 112.7128 248.2642 14.59991778  8205
Source of the keplerian elements: AFSPC